Find Starlink 11247

NORAD ID: 60720 Int'l Des: 2024-152 Owner: SPXS Country: US Constellation: starlink operational
LEOCIRCULAR

当前视图

正在加载3D地球...

About Starlink 11247

Starlink 11247 (NORAD 60720) is a starlink constellation satellite (v2 mini d2c) launched Aug 28, 2024 by SPXS of US. It operates in LEO, CIRCULAR orbit with a mass of 960.00 kg.

关于 Starlink 11247

正在加载描述...

即将过境

Passes for default location (London). Set your location on the main map for personalized predictions.

高度历史

Loading altitude history...

两行轨道根数

1 60720U 24152A 26173.69877400 .00001690 00000-0 18801-4 0 9997
2 60720 53.1589 318.9155 0000572 59.4944 300.6131 15.69699893105329
Epoch: Jun 22, 2026 • Age: 19 hours

当前状态

高度 360.1 km
速度 7.70 km/s
星下点 18.06°N, 32.67°E
发射日期 Aug 28, 2024
运行时间 1.8 years
类型 internet

技术详情

分类 Payload
质量 960.00 kg
干质量 910.00 kg
总质量 960.00 kg
长度 0.30 m
直径 4.10 m
跨度 29.00 m
形状 Box + pan
制造商 SPXS
平台类型 Starlink V2MD
阶段状态 In Orbit
所有者/国家 SPXS/US

Most Searched